Location: Hurstbourne Priors
(51.2000°N, 1.3667°W)
Time: 03:38:54
(UTC+00:00)

Cosmos 1741 Rocket - Pass Details

Date: 09 April 2020
Orbit: 762 x 782 km, 74.0° (Epoch: 01 June)

Event Time Altitude Azimuth Distance (km) Brightness Sun altitude
Exits shadow 21:21:09 15° 200° (SSW) 2,019 5.9 -20.9°
Maximum altitude 21:25:39 85° 113° (ESE) 792 3.9 -21.4°
Drops below altitude 10° 21:31:00 10° 26° (NNE) 2,348 6.8 -22.0°
Sets 21:33:24 0° 26° (NNE) 3,278 7.6 -22.2°
